| time (UTC) | temp C | wind direction | speed KPH | gust KPH | rain 1hr cm | rain 24hr cm | rain mn cm | humidity % | barometer mb |
| 20260503022034 | 18 | 130 | 9.7 | 16.1 | 0.00 | 0.00 | 0.00 | 38 | 1011.4 |
| 20260503021632 | 18 | 121 | 9.7 | 14.5 | 0.00 | 0.00 | 0.00 | 38 | 1011.3 |
| 20260503021231 | 18 | 153 | 3.2 | 14.5 | 0.00 | 0.00 | 0.00 | 38 | 1011.3 |
| 20260503020831 | 19 | 132 | 11.3 | 16.1 | 0.00 | 0.00 | 0.00 | 37 | 1011.3 |
| 20260503020429 | 19 | 135 | 11.3 | 19.3 | 0.00 | 0.00 | 0.00 | 36 | 1011.3 |
| 20260503020027 | 20 | 139 | 9.7 | 16.1 | 0.00 | 0.00 | 0.00 | 36 | 1011.2 |
| 20260503015626 | 20 | 135 | 12.9 | 22.5 | 0.00 | 0.00 | 0.00 | 36 | 1011.2 |
| 20260503014824 | 21 | 135 | 25.7 | 25.7 | 0.00 | 0.00 | 0.00 | 35 | 1011.2 |
| 20260503014422 | 21 | 115 | 17.7 | 22.5 | 0.00 | 0.00 | 0.00 | 34 | 1011.2 |
| 20260503014020 | 21 | 123 | 19.3 | 25.7 | 0.00 | 0.00 | 0.00 | 34 | 1011.2 |
| 20260503013619 | 22 | 123 | 14.5 | 20.9 | 0.00 | 0.00 | 0.00 | 34 | 1011.2 |
| 20260503013218 | 22 | 121 | 19.3 | 19.3 | 0.00 | 0.00 | 0.00 | 33 | 1011.1 |
| 20260503012817 | 22 | 137 | 19.3 | 19.3 | 0.00 | 0.00 | 0.00 | 33 | 1011.2 |
| 20260503012014 | 23 | 150 | 12.9 | 17.7 | 0.00 | 0.00 | 0.00 | 32 | 1011.3 |
| 20260503011212 | 23 | 78 | 16.1 | 16.1 | 0.00 | 0.00 | 0.00 | 32 | 1011.2 |
| 20260503010411 | 24 | 135 | 14.5 | 19.3 | 0.00 | 0.00 | 0.00 | 31 | 1011.1 |
| 20260503010009 | 24 | 137 | 11.3 | 17.7 | 0.00 | 0.00 | 0.00 | 31 | 1011.0 |
| 20260503005610 | 24 | 145 | 11.3 | 19.3 | 0.00 | 0.00 | 0.00 | 31 | 1011.1 |
| 20260503005205 | 24 | 135 | 3.2 | 16.1 | 0.00 | 0.00 | 0.00 | 31 | 1011.1 |
| 20260503004804 | 24 | 153 | 4.8 | 14.5 | 0.00 | 0.00 | 0.00 | 31 | 1011.1 |
| 20260503004002 | 25 | 135 | 14.5 | 17.7 | 0.00 | 0.00 | 0.00 | 30 | 1011.1 |
| 20260503003600 | 25 | 139 | 11.3 | 16.1 | 0.00 | 0.00 | 0.00 | 31 | 1011.2 |
| 20260503003159 | 25 | 122 | 9.7 | 19.3 | 0.00 | 0.00 | 0.00 | 30 | 1011.2 |
| 20260503002001 | 25 | 141 | 9.7 | 14.5 | 0.00 | 0.00 | 0.00 | 30 | 1011.2 |
| 20260503001554 | 25 | 144 | 9.7 | 11.3 | 0.00 | 0.00 | 0.00 | 30 | 1011.2 |
| 20260503001153 | 26 | 135 | 11.3 | 17.7 | 0.00 | 0.00 | 0.00 | 30 | 1011.2 |
| 20260503000751 | 26 | 120 | 4.8 | 20.9 | 0.00 | 0.00 | 0.00 | 30 | 1011.2 |
| 20260502235948 | 26 | 108 | 16.1 | 16.1 | 0.00 | 0.00 | 0.00 | 30 | 1011.1 |
| 20260502235548 | 26 | 135 | 14.5 | 17.7 | 0.00 | 0.00 | 0.00 | 30 | 1011.3 |
| 20260502235146 | 26 | 227 | 3.2 | 12.9 | 0.00 | 0.00 | 0.00 | 30 | 1011.3 |
| 20260502234745 | 26 | 135 | 9.7 | 14.5 | 0.00 | 0.00 | 0.00 | 30 | 1011.4 |
| 20260502233942 | 25 | 130 | 6.4 | 16.1 | 0.00 | 0.00 | 0.00 | 30 | 1011.4 |
| 20260502233549 | 25 | 135 | 14.5 | 16.1 | 0.00 | 0.00 | 0.00 | 30 | 1011.4 |
| 20260502232738 | 25 | 105 | 11.3 | 30.6 | 0.00 | 0.00 | 0.00 | 29 | 1011.5 |
| 20260502232338 | 26 | 132 | 6.4 | 25.7 | 0.00 | 0.00 | 0.00 | 30 | 1011.6 |
| 20260502231940 | 26 | 135 | 12.9 | 12.9 | 0.00 | 0.00 | 0.00 | 29 | 1011.5 |
| 20260502231535 | 26 | 153 | 4.8 | 14.5 | 0.00 | 0.00 | 0.00 | 29 | 1011.6 |
| 20260502231133 | 26 | 126 | 17.7 | 20.9 | 0.00 | 0.00 | 0.00 | 29 | 1011.6 |
| 20260502230732 | 26 | 135 | 12.9 | 19.3 | 0.00 | 0.00 | 0.00 | 29 | 1011.7 |
| 20260502230331 | 25 | 135 | 22.5 | 29.0 | 0.00 | 0.00 | 0.00 | 29 | 1011.7 |
| 20260502225929 | 26 | 121 | 12.9 | 16.1 | 0.00 | 0.00 | 0.00 | 29 | 1011.8 |
| 20260502225529 | 26 | 135 | 9.7 | 22.5 | 0.00 | 0.00 | 0.00 | 29 | 1011.8 |
| 20260502224725 | 26 | 132 | 17.7 | 17.7 | 0.00 | 0.00 | 0.00 | 28 | 1011.9 |
| 20260502224324 | 26 | 135 | 17.7 | 22.5 | 0.00 | 0.00 | 0.00 | 29 | 1012.1 |
| 20260502223522 | 26 | 110 | 14.5 | 14.5 | 0.00 | 0.00 | 0.00 | 29 | 1012.2 |
| 20260502223122 | 26 | 123 | 11.3 | 19.3 | 0.00 | 0.00 | 0.00 | 28 | 1012.4 |
| 20260502221916 | 26 | 135 | 12.9 | 14.5 | 0.00 | 0.00 | 0.00 | 28 | 1012.7 |
| 20260502221515 | 26 | 135 | 14.5 | 17.7 | 0.00 | 0.00 | 0.00 | 28 | 1012.6 |
| 20260502221114 | 27 | 135 | 12.9 | 14.5 | 0.00 | 0.00 | 0.00 | 28 | 1012.7 |
| 20260502220713 | 27 | 137 | 9.7 | 17.7 | 0.00 | 0.00 | 0.00 | 29 | 1012.8 |
| 20260502220311 | 28 | 140 | 9.7 | 14.5 | 0.00 | 0.00 | 0.00 | 29 | 1012.8 |
| 20260502215910 | 28 | 135 | 11.3 | 16.1 | 0.00 | 0.00 | 0.00 | 29 | 1012.9 |
| 20260502215510 | 28 | 152 | 1.6 | 11.3 | 0.00 | 0.00 | 0.00 | 29 | 1013.0 |
| 20260502215109 | 28 | 166 | 9.7 | 11.3 | 0.00 | 0.00 | 0.00 | 29 | 1013.0 |
| 20260502213903 | 28 | 137 | 11.3 | 14.5 | 0.00 | 0.00 | 0.00 | 29 | 1013.1 |
| 20260502213101 | 27 | 135 | 8.0 | 17.7 | 0.00 | 0.00 | 0.00 | 29 | 1013.3 |
| 20260502212700 | 29 | 175 | 6.4 | 11.3 | 0.00 | 0.00 | 0.00 | 29 | 1013.3 |
| 20260502211455 | 29 | 155 | 8.0 | 11.3 | 0.00 | 0.00 | 0.00 | 30 | 1013.4 |
| 20260502211054 | 28 | 202 | 3.2 | 9.7 | 0.00 | 0.00 | 0.00 | 30 | 1013.5 |
| 20260502210252 | 28 | 132 | 9.7 | 11.3 | 0.00 | 0.00 | 0.00 | 30 | 1013.6 |
| 20260502205851 | 28 | 126 | 6.4 | 14.5 | 0.00 | 0.00 | 0.00 | 30 | 1013.6 |
| 20260502205451 | 28 | 135 | 9.7 | 14.5 | 0.00 | 0.00 | 0.00 | 31 | 1013.7 |
| 20260502205048 | 27 | 130 | 11.3 | 14.5 | 0.00 | 0.00 | 0.00 | 31 | 1013.7 |
| 20260502204647 | 27 | 137 | 9.7 | 12.9 | 0.00 | 0.00 | 0.00 | 31 | 1013.8 |
| 20260502204245 | 28 | 85 | 1.6 | 12.9 | 0.00 | 0.00 | 0.00 | 31 | 1013.7 |
| 20260502203443 | 27 | 193 | 4.8 | 8.0 | 0.00 | 0.00 | 0.00 | 32 | 1013.7 |
| 20260502203042 | 27 | 103 | 6.4 | 11.3 | 0.00 | 0.00 | 0.00 | 32 | 1013.8 |
| 20260502202641 | 27 | 270 | 1.6 | 12.9 | 0.00 | 0.00 | 0.00 | 32 | 1013.8 |
| 20260502202241 | 26 | 166 | 4.8 | 8.0 | 0.00 | 0.00 | 0.00 | 33 | 1013.8 |
| 20260502201838 | 26 | 135 | 4.8 | 9.7 | 0.00 | 0.00 | 0.00 | 33 | 1013.9 |
| 20260502201437 | 26 | 85 | 4.8 | 9.7 | 0.00 | 0.00 | 0.00 | 33 | 1013.9 |
| 20260502201036 | 25 | 81 | 6.4 | 12.9 | 0.00 | 0.00 | 0.00 | 33 | 1014.0 |
| 20260502200634 | 25 | 135 | 9.7 | 12.9 | 0.00 | 0.00 | 0.00 | 34 | 1014.1 |
| 20260502200232 | 25 | 105 | 3.2 | 11.3 | 0.00 | 0.00 | 0.00 | 34 | 1014.1 |
| 20260502195831 | 25 | 90 | 4.8 | 9.7 | 0.00 | 0.00 | 0.00 | 34 | 1014.2 |
| 20260502195029 | 25 | 76 | 9.7 | 12.9 | 0.00 | 0.00 | 0.00 | 35 | 1014.4 |
| 20260502194628 | 26 | 80 | 12.9 | 12.9 | 0.00 | 0.00 | 0.00 | 35 | 1014.4 |
| 20260502193022 | 24 | 103 | 11.3 | 14.5 | 0.00 | 0.00 | 0.00 | 36 | 1014.6 |
| 20260502192621 | 24 | 101 | 12.9 | 12.9 | 0.00 | 0.00 | 0.00 | 36 | 1014.5 |
| 20260502191420 | 24 | 50 | 4.8 | 9.7 | 0.00 | 0.00 | 0.00 | 37 | 1014.8 |
| 20260502191016 | 24 | 28 | 4.8 | 12.9 | 0.00 | 0.00 | 0.00 | 35 | 1014.7 |
| 20260502190615 | 25 | 76 | 6.4 | 11.3 | 0.00 | 0.00 | 0.00 | 35 | 1014.9 |
| 20260502190213 | 25 | 130 | 11.3 | 11.3 | 0.00 | 0.00 | 0.00 | 36 | 1015.0 |
| 20260502185812 | 26 | 132 | 0.0 | 8.0 | 0.00 | 0.00 | 0.00 | 36 | 1015.1 |
| 20260502185411 | 26 | 221 | 1.6 | 4.8 | 0.00 | 0.00 | 0.00 | 37 | 1015.2 |
| 20260502185009 | 25 | 255 | 3.2 | 6.4 | 0.00 | 0.00 | 0.00 | 37 | 1015.1 |
| 20260502184608 | 25 | 283 | 1.6 | 8.0 | 0.00 | 0.00 | 0.00 | 37 | 1015.3 |
| 20260502184207 | 24 | 119 | 6.4 | 9.7 | 0.00 | 0.00 | 0.00 | 38 | 1015.4 |
| 20260502183806 | 25 | 81 | 0.0 | 1.6 | 0.00 | 0.00 | 0.00 | 39 | 1015.5 |
| 20260502183405 | 24 | 72 | 1.6 | 4.8 | 0.00 | 0.00 | 0.00 | 39 | 1015.4 |
| 20260502183005 | 23 | 326 | 1.6 | 3.2 | 0.00 | 0.00 | 0.00 | 40 | 1015.4 |
| 20260502182601 | 23 | 170 | 1.6 | 4.8 | 0.00 | 0.00 | 0.00 | 41 | 1015.4 |
| 20260502182201 | 22 | 126 | 4.8 | 8.0 | 0.00 | 0.00 | 0.00 | 41 | 1015.4 |
| 20260502181759 | 22 | 126 | 8.0 | 9.7 | 0.00 | 0.00 | 0.00 | 42 | 1015.4 |
| 20260502170135 | 17 | 128 | 6.4 | 8.0 | 0.00 | 0.00 | 0.00 | 48 | 1016.4 |
| 20260502164128 | 16 | 135 | 1.6 | 11.3 | 0.00 | 0.00 | 0.00 | 49 | 1016.3 |
| 20260502163326 | 16 | 135 | 14.5 | 14.5 | 0.00 | 0.00 | 0.00 | 50 | 1016.3 |
| 20260502162927 | 17 | 135 | 9.7 | 9.7 | 0.00 | 0.00 | 0.00 | 51 | 1016.3 |
| 20260502162523 | 17 | 117 | 6.4 | 6.4 | 0.00 | 0.00 | 0.00 | 52 | 1016.2 |
| 20260502162122 | 17 | 210 | 1.6 | 6.4 | 0.00 | 0.00 | 0.00 | 52 | 1016.3 |
| 20260502161319 | 16 | 127 | 3.2 | 6.4 | 0.00 | 0.00 | 0.00 | 54 | 1016.2 |
| 20260502160918 | 16 | 154 | 3.2 | 6.4 | 0.00 | 0.00 | 0.00 | 54 | 1016.1 |
| 20260502160517 | 16 | 162 | 3.2 | 6.4 | 0.00 | 0.00 | 0.00 | 54 | 1016.2 |
| 20260502160117 | 15 | 125 | 4.8 | 6.4 | 0.00 | 0.00 | 0.00 | 54 | 1016.2 |
| 20260502151702 | 13 | 85 | 6.4 | 9.7 | 0.00 | 0.00 | 0.00 | 57 | 1015.8 |
| 20260502151302 | 13 | 103 | 4.8 | 9.7 | 0.00 | 0.00 | 0.00 | 58 | 1015.6 |
| 20260502150859 | 13 | 126 | 8.0 | 8.0 | 0.00 | 0.00 | 0.00 | 59 | 1015.7 |
| 20260502150500 | 13 | 137 | 4.8 | 8.0 | 0.00 | 0.00 | 0.00 | 58 | 1015.7 |
| 20260502130419 | 11 | 135 | 0.0 | 0.0 | 0.00 | 0.00 | 0.00 | 60 | 1015.1 |
| 20260502123209 | 10 | 85 | 0.0 | 1.6 | 0.00 | 0.00 | 0.00 | 60 | 1014.9 |
| 20260502122808 | 10 | 135 | 0.0 | 3.2 | 0.00 | 0.00 | 0.00 | 60 | 1014.8 |
| 20260502122407 | 10 | 135 | 1.6 | 3.2 | 0.00 | 0.00 | 0.00 | 60 | 1014.8 |
| 20260502121604 | 10 | 182 | 0.0 | 1.6 | 0.00 | 0.00 | 0.00 | 60 | 1014.7 |
| 20260502121202 | 10 | 135 | 1.6 | 1.6 | 0.00 | 0.00 | 0.00 | 60 | 1014.7 |
| 20260502120801 | 9 | 164 | 1.6 | 1.6 | 0.00 | 0.00 | 0.00 | 59 | 1014.8 |
| 20260502120401 | 9 | 135 | 1.6 | 3.2 | 0.00 | 0.00 | 0.00 | 59 | 1014.8 |
| 20260502115558 | 9 | 83 | 0.0 | 0.0 | 0.00 | 0.00 | 0.00 | 59 | 1014.8 |
| 20260502115156 | 9 | 78 | 0.0 | 0.0 | 0.00 | 0.00 | 0.00 | 59 | 1014.6 |
| 20260502114755 | 10 | 81 | 0.0 | 0.0 | 0.00 | 0.00 | 0.00 | 59 | 1014.6 |
| 20260502114354 | 10 | 81 | 0.0 | 0.0 | 0.00 | 0.00 | 0.00 | 59 | 1014.6 |
| 20260502113953 | 10 | 81 | 0.0 | 0.0 | 0.00 | 0.00 | 0.00 | 59 | 1014.5 |
| 20260502113552 | 9 | 81 | 0.0 | 0.0 | 0.00 | 0.00 | 0.00 | 59 | 1014.5 |
| 20260502112748 | 9 | 42 | 0.0 | 1.6 | 0.00 | 0.00 | 0.00 | 59 | 1014.4 |
| 20260502112347 | 9 | 81 | 0.0 | 0.0 | 0.00 | 0.00 | 0.00 | 59 | 1014.4 |
| 20260502111545 | 9 | 78 | 0.0 | 0.0 | 0.00 | 0.00 | 0.00 | 59 | 1014.5 |
| 20260502111143 | 10 | 42 | 0.0 | 0.0 | 0.00 | 0.00 | 0.00 | 59 | 1014.4 |
| 20260502110742 | 10 | 42 | 0.0 | 0.0 | 0.00 | 0.00 | 0.00 | 59 | 1014.3 |
| 20260502110340 | 10 | 81 | 0.0 | 0.0 | 0.00 | 0.00 | 0.00 | 59 | 1014.3 |
| 20260502105939 | 10 | 85 | 0.0 | 0.0 | 0.00 | 0.00 | 0.00 | 59 | 1014.3 |
| 20260502105538 | 10 | 81 | 0.0 | 0.0 | 0.00 | 0.00 | 0.00 | 59 | 1014.3 |
| 20260502104336 | 10 | 342 | 0.0 | 0.0 | 0.00 | 0.00 | 0.00 | 59 | 1014.2 |
| 20260502103933 | 10 | 315 | 0.0 | 0.0 | 0.00 | 0.00 | 0.00 | 59 | 1014.2 |
| 20260502103534 | 10 | 301 | 0.0 | 0.0 | 0.00 | 0.00 | 0.00 | 59 | 1014.2 |
| 20260502103131 | 10 | 306 | 0.0 | 0.0 | 0.00 | 0.00 | 0.00 | 59 | 1014.2 |
| 20260502100325 | 10 | 328 | 0.0 | 0.0 | 0.00 | 0.00 | 0.00 | 58 | 1014.3 |
| 20260502091508 | 11 | 301 | 0.0 | 0.0 | 0.00 | 0.00 | 0.00 | 1014.5 | |
| 20260502091506 | 11 | 301 | 0.0 | 0.0 | 0.00 | 0.00 | 0.00 | 58 | 1014.5 |
| 20260502091104 | 11 | 310 | 0.0 | 0.0 | 0.00 | 0.00 | 0.00 | 58 | 1014.6 |
| 20260502090703 | 11 | 301 | 0.0 | 0.0 | 0.00 | 0.00 | 0.00 | 58 | 1014.6 |
| 20260502090302 | 11 | 310 | 0.0 | 0.0 | 0.00 | 0.00 | 0.00 | 57 | 1014.7 |
| 20260502071428 | 13 | 42 | 0.0 | 0.0 | 0.00 | 0.00 | 0.00 | 55 | 1015.5 |
| 20260502071026 | 13 | 45 | 0.0 | 0.0 | 0.00 | 0.00 | 0.00 | 55 | 1015.4 |
| 20260502070625 | 13 | 45 | 0.0 | 0.0 | 0.00 | 0.00 | 0.00 | 55 | 1015.3 |
| 20260502070224 | 13 | 40 | 0.0 | 0.0 | 0.00 | 0.00 | 0.00 | 55 | 1015.4 |
| 20260502065822 | 13 | 42 | 0.0 | 0.0 | 0.00 | 0.00 | 0.00 | 55 | 1015.4 |
| 20260502065421 | 13 | 40 | 0.0 | 0.0 | 0.00 | 0.00 | 0.00 | 55 | 1015.4 |
| 20260502065023 | 13 | 38 | 0.0 | 0.0 | 0.00 | 0.00 | 0.00 | 55 | 1015.4 |
| 20260502064619 | 13 | 45 | 0.0 | 0.0 | 0.00 | 0.00 | 0.00 | 55 | 1015.0 |
| 20260502064217 | 13 | 45 | 0.0 | 0.0 | 0.00 | 0.00 | 0.00 | 54 | 1015.3 |
| 20260502063816 | 13 | 45 | 0.0 | 0.0 | 0.00 | 0.00 | 0.00 | 54 | 1015.3 |
| 20260502063014 | 13 | 45 | 0.0 | 0.0 | 0.00 | 0.00 | 0.00 | 54 | 1015.2 |
| 20260502062615 | 13 | 38 | 0.0 | 0.0 | 0.00 | 0.00 | 0.00 | 54 | 1015.2 |
| 20260502062211 | 13 | 40 | 0.0 | 0.0 | 0.00 | 0.00 | 0.00 | 54 | 1015.2 |
| 20260502061810 | 14 | 83 | 0.0 | 0.0 | 0.00 | 0.00 | 0.00 | 54 | 1015.1 |
| 20260502061408 | 14 | 76 | 0.0 | 0.0 | 0.00 | 0.00 | 0.00 | 53 | 1015.2 |
| 20260502061007 | 14 | 76 | 0.0 | 0.0 | 0.00 | 0.00 | 0.00 | 53 | 1015.2 |
| 20260502060607 | 14 | 83 | 0.0 | 1.6 | 0.00 | 0.00 | 0.00 | 53 | 1015.2 |
| 20260502055803 | 14 | 135 | 3.2 | 3.2 | 0.00 | 0.00 | 0.00 | 53 | 1015.1 |
| 20260502055401 | 14 | 135 | 3.2 | 3.2 | 0.00 | 0.00 | 0.00 | 53 | 1015.1 |
| 20260502055003 | 14 | 135 | 1.6 | 4.8 | 0.00 | 0.00 | 0.00 | 53 | 1015.1 |
| 20260502054559 | 14 | 135 | 3.2 | 3.2 | 0.00 | 0.00 | 0.00 | 53 | 1015.2 |
| 20260502054158 | 14 | 83 | 3.2 | 3.2 | 0.00 | 0.00 | 0.00 | 53 | 1015.2 |
| 20260502053757 | 14 | 90 | 3.2 | 3.2 | 0.00 | 0.00 | 0.00 | 52 | 1015.2 |
| 20260502053355 | 14 | 81 | 3.2 | 3.2 | 0.00 | 0.00 | 0.00 | 52 | 1015.2 |
| 20260502052954 | 14 | 90 | 3.2 | 3.2 | 0.00 | 0.00 | 0.00 | 52 | 1015.3 |
| 20260502052553 | 14 | 135 | 3.2 | 3.2 | 0.00 | 0.00 | 0.00 | 52 | 1015.3 |
| 20260502052152 | 15 | 135 | 3.2 | 3.2 | 0.00 | 0.00 | 0.00 | 52 | 1015.3 |
| 20260502051750 | 15 | 135 | 3.2 | 4.8 | 0.00 | 0.00 | 0.00 | 52 | 1015.2 |
| 20260502051349 | 15 | 135 | 3.2 | 3.2 | 0.00 | 0.00 | 0.00 | 51 | 1015.2 |
| 20260502050947 | 15 | 130 | 3.2 | 3.2 | 0.00 | 0.00 | 0.00 | 51 | 1015.1 |
| 20260502050546 | 15 | 135 | 3.2 | 4.8 | 0.00 | 0.00 | 0.00 | 51 | 1015.1 |
| 20260502045744 | 15 | 135 | 3.2 | 4.8 | 0.00 | 0.00 | 0.00 | 51 | 1015.0 |
| 20260502045343 | 15 | 135 | 3.2 | 4.8 | 0.00 | 0.00 | 0.00 | 51 | 1015.0 |
| 20260502044942 | 15 | 135 | 3.2 | 4.8 | 0.00 | 0.00 | 0.00 | 50 | 1015.0 |
| 20260502044539 | 15 | 135 | 3.2 | 3.2 | 0.00 | 0.00 | 0.00 | 50 | 1015.0 |
| 20260502044138 | 15 | 135 | 3.2 | 6.4 | 0.00 | 0.00 | 0.00 | 50 | 1014.9 |
| 20260502043739 | 15 | 103 | 4.8 | 6.4 | 0.00 | 0.00 | 0.00 | 50 | 1014.9 |
| 20260502043337 | 15 | 135 | 4.8 | 8.0 | 0.00 | 0.00 | 0.00 | 49 | 1014.8 |
| 20260502042534 | 16 | 110 | 6.4 | 6.4 | 0.00 | 0.00 | 0.00 | 49 | 1014.7 |
| 20260502041731 | 16 | 135 | 3.2 | 3.2 | 0.00 | 0.00 | 0.00 | 48 | 1014.5 |
| 20260502041330 | 16 | 135 | 3.2 | 6.4 | 0.00 | 0.00 | 0.00 | 48 | 1014.5 |
| 20260502035724 | 17 | 123 | 3.2 | 6.4 | 0.00 | 0.00 | 0.00 | 47 | 1014.3 |
| 20260502035323 | 17 | 135 | 3.2 | 8.0 | 0.00 | 0.00 | 0.00 | 47 | 1014.2 |
| 20260502034927 | 17 | 135 | 6.4 | 6.4 | 0.00 | 0.00 | 0.00 | 46 | 1014.0 |
| 20260502034521 | 17 | 135 | 6.4 | 6.4 | 0.00 | 0.00 | 0.00 | 46 | 1014.1 |
| 20260502034126 | 17 | 135 | 4.8 | 4.8 | 0.00 | 0.00 | 0.00 | 45 | 1014.0 |
| 20260502033719 | 18 | 135 | 4.8 | 4.8 | 0.00 | 0.00 | 0.00 | 45 | 1013.9 |
| 20260502033318 | 18 | 135 | 3.2 | 3.2 | 0.00 | 0.00 | 0.00 | 45 | 1013.9 |
| 20260502032915 | 18 | 135 | 1.6 | 3.2 | 0.00 | 0.00 | 0.00 | 44 | 1013.7 |
| 20260502032514 | 18 | 108 | 1.6 | 9.7 | 0.00 | 0.00 | 0.00 | 44 | 1013.6 |
| 20260502032113 | 18 | 96 | 4.8 | 4.8 | 0.00 | 0.00 | 0.00 | 43 | 1013.6 |
| 20260502031712 | 18 | 177 | 0.0 | 1.6 | 0.00 | 0.00 | 0.00 | 43 | 1013.5 |
| 20260502031313 | 18 | 135 | 3.2 | 6.4 | 0.00 | 0.00 | 0.00 | 42 | 1013.4 |
| 20260502030508 | 19 | 135 | 4.8 | 4.8 | 0.00 | 0.00 | 0.00 | 41 | 1013.4 |
| 20260502030106 | 19 | 135 | 3.2 | 6.4 | 0.00 | 0.00 | 0.00 | 41 | 1013.4 |
| 20260502025705 | 19 | 103 | 3.2 | 6.4 | 0.00 | 0.00 | 0.00 | 40 | 1013.3 |
| 20260502025306 | 20 | 135 | 3.2 | 4.8 | 0.00 | 0.00 | 0.00 | 40 | 1013.3 |
| 20260502024100 | 20 | 135 | 4.8 | 6.4 | 0.00 | 0.00 | 0.00 | 38 | 1013.3 |
| 20260502023700 | 21 | 135 | 4.8 | 4.8 | 0.00 | 0.00 | 0.00 | 38 | 1013.2 |
| 20260502022858 | 21 | 117 | 3.2 | 4.8 | 0.00 | 0.00 | 0.00 | 37 | 1013.1 |
| 20260502022456 | 21 | 135 | 4.8 | 6.4 | 0.00 | 0.00 | 0.00 | 36 | 1013.0 |